sat.trackr.live / text

‹ back to catalog

STARLINK-2303

NORAD 47981 · 2021-024E

PAYLOAD ACTIVE UNKNOWN

§ Identity

Operator
Country
US
Launch date
2021-03-24
Launch site
AFETR
Launch vehicle
Mass (kg)
RCS (m²)

Purposes: comms

External: N2YO · Heavens-Above · Gunter

§ Orbital elements

Epoch: 2026-09-15T18:42:45.455328Z

Period
94.01 min
Inclination
53.1610°
Eccentricity
0.0000980
Mean motion
15.31706426 rev/d
Perigee alt
470.0 km
Apogee alt
471.4 km
Semi-major
6,848.9 km
B*
4.4612e-6
RAAN
167.8103°
Arg perigee
108.9713°
Mean anomaly
251.1394°
Rev number
30,375

§ Raw data

STARLINK-23031 47981U 21024E   26258.77969277 -.00000226  00000+0  44612-5 0  99972 47981  53.1610 167.8103 0000980 108.9713 251.1394 15.31706426303757

JSON: /api/v1/satellites/47981 · /tle

For live sub-satellite position, see the globe view (requires WebGL).

§ Visibility from observer

Set your observer location to see the next 7 days of passes ≥ 10°. The values pass through the URL so the page stays shareable.

No JS? Fill the form by hand. The geolocation button needs JavaScript.